Time,TemperatureF,DewpointF,PressureIn,WindDirection,WindDirectionDegrees,WindSpeedMPH,WindSpeedGustMPH,Humidity,HourlyPrecipIn,Conditions,Clouds,dailyrainin,SoftwareType,DateUTC
2013-01-20 07:51:00,41.9,35.5,29.58,SSW,197,7.0,9.0,78,0.00,,,0.00,Wunderground v.1.15,2013-01-20 12:51:00,
2013-01-20 07:52:00,41.9,35.5,29.58,South,181,7.0,9.0,78,0.00,,,0.00,Wunderground v.1.15,2013-01-20 12:52:00,
2013-01-20 07:54:00,41.9,35.5,29.58,South,188,7.0,9.0,78,0.00,,,0.00,Wunderground v.1.15,2013-01-20 12:54:00,
2013-01-20 07:57:00,42.0,35.6,29.58,South,181,8.0,10.0,78,0.00,,,0.00,Wunderground v.1.15,2013-01-20 12:57:00,
2013-01-20 08:03:00,42.2,35.8,29.57,SW,221,7.0,16.0,78,0.00,,,0.00,Wunderground v.1.15,2013-01-20 13:03:00,
2013-01-20 08:08:00,42.2,35.8,29.56,South,184,7.0,16.0,78,0.00,,,0.00,Wunderground v.1.15,2013-01-20 13:08:00,
2013-01-20 08:14:00,42.4,35.7,29.56,South,190,8.0,16.0,77,0.00,,,0.00,Wunderground v.1.15,2013-01-20 13:14:00,
2013-01-20 08:19:00,42.6,35.9,29.55,SSW,196,9.0,16.0,77,0.00,,,0.00,Wunderground v.1.15,2013-01-20 13:19:00,
2013-01-20 08:24:00,42.6,35.9,29.55,South,190,9.0,16.0,77,0.00,,,0.00,Wunderground v.1.15,2013-01-20 13:24:00,
2013-01-20 08:30:00,42.7,35.7,29.55,South,180,9.0,9.0,76,0.00,,,0.00,Wunderground v.1.15,2013-01-20 13:30:00,
2013-01-20 08:35:00,42.9,35.9,29.55,South,184,9.0,16.0,76,0.00,,,0.00,Wunderground v.1.15,2013-01-20 13:35:00,
2013-01-20 08:41:00,42.9,35.9,29.55,SSW,208,9.0,16.0,76,0.00,,,0.00,Wunderground v.1.15,2013-01-20 13:41:00,
2013-01-20 08:46:00,43.0,36.0,29.55,SW,214,9.0,16.0,76,0.00,,,0.00,Wunderground v.1.15,2013-01-20 13:46:00,
2013-01-20 08:51:00,42.9,35.9,29.55,SSW,201,10.0,16.0,76,0.00,,,0.00,Wunderground v.1.15,2013-01-20 13:51:00,
2013-01-20 08:57:00,43.0,36.0,29.55,South,184,9.0,16.0,76,0.00,,,0.00,Wunderground v.1.15,2013-01-20 13:57:00,
2013-01-20 09:02:00,43.1,36.0,29.55,South,177,9.0,16.0,76,0.00,,,0.00,Wunderground v.1.15,2013-01-20 14:02:00,
2013-01-20 09:07:00,43.1,36.0,29.54,SSW,204,10.0,16.0,76,0.00,,,0.00,Wunderground v.1.15,2013-01-20 14:07:00,
2013-01-20 09:13:00,43.0,36.0,29.54,SSW,192,9.0,16.0,76,0.00,,,0.00,Wunderground v.1.15,2013-01-20 14:13:00,
2013-01-20 09:19:00,42.9,35.9,29.54,SSE,167,10.0,16.0,76,0.00,,,0.00,Wunderground v.1.15,2013-01-20 14:19:00,
2013-01-20 09:24:00,42.8,35.8,29.53,SSW,202,10.0,22.0,76,0.00,,,0.00,Wunderground v.1.15,2013-01-20 14:24:00,
2013-01-20 09:29:00,42.8,35.8,29.53,South,172,10.0,22.0,76,0.00,,,0.00,Wunderground v.1.15,2013-01-20 14:29:00,
2013-01-20 09:34:00,42.9,35.9,29.53,South,187,9.0,16.0,76,0.00,,,0.00,Wunderground v.1.15,2013-01-20 14:34:00,
2013-01-20 09:40:00,43.1,35.7,29.53,SSE,159,10.0,17.0,75,0.00,,,0.00,Wunderground v.1.15,2013-01-20 14:40:00,
2013-01-20 09:46:00,43.2,35.8,29.53,SSE,157,10.0,17.0,75,0.00,,,0.00,Wunderground v.1.15,2013-01-20 14:46:00,
2013-01-20 09:52:00,43.0,35.6,29.52,SW,216,10.0,14.0,75,0.00,,,0.00,Wunderground v.1.15,2013-01-20 14:52:00,
2013-01-20 09:57:00,42.9,35.5,29.53,SW,232,11.0,14.0,75,0.00,,,0.00,Wunderground v.1.15,2013-01-20 14:57:00,
2013-01-20 10:02:00,43.0,35.3,29.52,South,189,10.0,22.0,74,0.00,,,0.00,Wunderground v.1.15,2013-01-20 15:02:00,
2013-01-20 10:07:00,43.0,35.6,29.52,South,169,9.0,22.0,75,0.00,,,0.00,Wunderground v.1.15,2013-01-20 15:07:00,
2013-01-20 10:13:00,43.0,35.6,29.51,South,182,9.0,22.0,75,0.00,,,0.00,Wunderground v.1.15,2013-01-20 15:13:00,
2013-01-20 10:19:00,42.9,35.5,29.51,SSW,192,10.0,22.0,75,0.00,,,0.00,Wunderground v.1.15,2013-01-20 15:19:00,
2013-01-20 10:24:00,42.8,35.4,29.50,SSW,198,9.0,22.0,75,0.00,,,0.00,Wunderground v.1.15,2013-01-20 15:24:00,
2013-01-20 10:30:00,42.9,35.5,29.50,SSW,196,9.0,9.0,75,0.00,,,0.00,Wunderground v.1.15,2013-01-20 15:30:00,
2013-01-20 10:35:00,43.0,35.6,29.50,South,176,9.0,22.0,75,0.00,,,0.00,Wunderground v.1.15,2013-01-20 15:35:00,
2013-01-20 10:40:00,43.2,35.5,29.49,South,180,8.0,22.0,74,0.00,,,0.00,Wunderground v.1.15,2013-01-20 15:40:00,
2013-01-20 10:45:00,43.5,35.8,29.49,SSW,202,8.0,22.0,74,0.00,,,0.00,Wunderground v.1.15,2013-01-20 15:45:00,
2013-01-20 10:50:00,43.8,35.4,29.48,SSW,193,9.0,22.0,72,0.00,,,0.00,Wunderground v.1.15,2013-01-20 15:50:00,
2013-01-20 10:55:00,44.0,35.6,29.48,SSE,163,10.0,22.0,72,0.00,,,0.00,Wunderground v.1.15,2013-01-20 15:55:00,
2013-01-20 11:01:00,43.8,35.4,29.47,South,175,10.0,11.0,72,0.00,,,0.00,Wunderground v.1.15,2013-01-20 16:01:00,
2013-01-20 11:06:00,43.9,35.5,29.47,SSE,167,11.0,22.0,72,0.00,,,0.00,Wunderground v.1.15,2013-01-20 16:06:00,
2013-01-20 11:12:00,44.0,35.6,29.47,SSW,208,11.0,22.0,72,0.00,,,0.00,Wunderground v.1.15,2013-01-20 16:12:00,
2013-01-20 11:17:00,44.0,35.6,29.46,South,185,10.0,22.0,72,0.00,,,0.00,Wunderground v.1.15,2013-01-20 16:17:00,
2013-01-20 11:22:00,44.1,35.6,29.46,South,173,8.0,22.0,72,0.00,,,0.00,Wunderground v.1.15,2013-01-20 16:22:00,
2013-01-20 11:27:00,44.2,35.7,29.46,South,188,7.0,22.0,72,0.00,,,0.00,Wunderground v.1.15,2013-01-20 16:27:00,
2013-01-20 11:32:00,44.4,35.6,29.46,SSW,213,7.0,22.0,71,0.00,,,0.00,Wunderground v.1.15,2013-01-20 16:32:00,
2013-01-20 11:37:00,44.4,35.9,29.45,SSW,213,7.0,22.0,72,0.00,,,0.00,Wunderground v.1.15,2013-01-20 16:37:00,
2013-01-20 11:43:00,44.4,35.9,29.45,South,175,7.0,22.0,72,0.00,,,0.00,Wunderground v.1.15,2013-01-20 16:43:00,
2013-01-20 11:49:00,44.3,35.8,29.45,SW,223,7.0,22.0,72,0.00,,,0.00,Wunderground v.1.15,2013-01-20 16:49:00,
2013-01-20 11:54:00,44.5,36.0,29.45,South,188,7.0,22.0,72,0.00,,,0.00,Wunderground v.1.15,2013-01-20 16:54:00,
2013-01-20 11:59:00,44.7,36.2,29.45,SSW,194,6.0,22.0,72,0.00,,,0.00,Wunderground v.1.15,2013-01-20 16:59:00,
2013-01-20 12:04:00,44.7,36.2,29.45,South,173,5.0,22.0,72,0.00,,,0.00,Wunderground v.1.15,2013-01-20 17:04:00,
2013-01-20 12:09:00,44.9,36.1,29.45,South,188,5.0,22.0,71,0.00,,,0.00,Wunderground v.1.15,2013-01-20 17:09:00,
2013-01-20 12:14:00,44.8,36.3,29.45,SSE,161,5.0,22.0,72,0.00,,,0.00,Wunderground v.1.15,2013-01-20 17:14:00,
2013-01-20 12:20:00,44.7,36.2,29.45,South,173,6.0,22.0,72,0.00,,,0.00,Wunderground v.1.15,2013-01-20 17:20:00,
2013-01-20 12:25:00,44.7,36.2,29.45,SSW,205,7.0,22.0,72,0.00,,,0.00,Wunderground v.1.15,2013-01-20 17:25:00,
2013-01-20 12:30:00,44.6,35.8,29.44,South,176,7.0,7.0,71,0.00,,,0.00,Wunderground v.1.15,2013-01-20 17:30:00,
2013-01-20 12:35:00,44.5,35.7,29.45,SW,220,5.0,22.0,71,0.00,,,0.00,Wunderground v.1.15,2013-01-20 17:35:00,
2013-01-20 12:40:00,44.6,35.8,29.45,SSW,196,5.0,22.0,71,0.00,,,0.00,Wunderground v.1.15,2013-01-20 17:40:00,
2013-01-20 12:46:00,44.5,35.7,29.45,SSW,212,5.0,22.0,71,0.00,,,0.00,Wunderground v.1.15,2013-01-20 17:46:00,
2013-01-20 12:51:00,44.5,35.3,29.46,WSW,241,3.0,22.0,70,0.00,,,0.00,Wunderground v.1.15,2013-01-20 17:51:00,
2013-01-20 12:56:00,44.5,35.0,29.46,NW,306,2.0,22.0,69,0.00,,,0.00,Wunderground v.1.15,2013-01-20 17:56:00,
2013-01-20 13:02:00,45.3,32.6,29.46,West,260,4.0,22.0,61,0.00,,,0.00,Wunderground v.1.15,2013-01-20 18:02:00,
2013-01-20 13:07:00,45.9,32.4,29.46,WSW,257,7.0,22.0,59,0.00,,,0.00,Wunderground v.1.15,2013-01-20 18:07:00,
2013-01-20 13:12:00,46.0,32.0,29.47,NNW,333,6.0,22.0,58,0.00,,,0.00,Wunderground v.1.15,2013-01-20 18:12:00,
2013-01-20 13:17:00,45.9,31.5,29.47,SW,231,6.0,22.0,57,0.00,,,0.00,Wunderground v.1.15,2013-01-20 18:17:00,
2013-01-20 13:23:00,45.4,31.0,29.48,WSW,251,8.0,22.0,57,0.00,,,0.00,Wunderground v.1.15,2013-01-20 18:23:00,
2013-01-20 13:28:00,45.1,30.8,29.48,West,268,8.0,22.0,57,0.00,,,0.00,Wunderground v.1.15,2013-01-20 18:28:00,
2013-01-20 13:33:00,44.9,31.0,29.48,WSW,248,7.0,22.0,58,0.00,,,0.00,Wunderground v.1.15,2013-01-20 18:33:00,
2013-01-20 13:38:00,44.7,31.2,29.48,SW,217,5.0,22.0,59,0.00,,,0.00,Wunderground v.1.15,2013-01-20 18:38:00,
2013-01-20 13:43:00,44.6,31.6,29.48,WSW,245,5.0,22.0,60,0.00,,,0.00,Wunderground v.1.15,2013-01-20 18:43:00,
2013-01-20 13:49:00,44.3,31.7,29.48,SW,225,7.0,22.0,61,0.00,,,0.00,Wunderground v.1.15,2013-01-20 18:49:00,
2013-01-20 13:54:00,44.2,31.6,29.48,SSW,211,7.0,22.0,61,0.00,,,0.00,Wunderground v.1.15,2013-01-20 18:54:00,
2013-01-20 13:59:00,44.0,31.0,29.48,SW,214,6.0,22.0,60,0.00,,,0.00,Wunderground v.1.15,2013-01-20 18:59:00,
2013-01-20 14:05:00,44.2,29.9,29.48,SW,224,9.0,22.0,57,0.00,,,0.00,Wunderground v.1.15,2013-01-20 19:05:00,
2013-01-20 14:10:00,44.1,29.4,29.48,WSW,244,9.0,22.0,56,0.00,,,0.00,Wunderground v.1.15,2013-01-20 19:10:00,
2013-01-20 14:15:00,44.1,28.9,29.49,WNW,287,9.0,22.0,55,0.00,,,0.00,Wunderground v.1.15,2013-01-20 19:15:00,
2013-01-20 14:21:00,43.9,28.8,29.49,SW,229,9.0,22.0,55,0.00,,,0.00,Wunderground v.1.15,2013-01-20 19:21:00,
2013-01-20 14:27:00,43.8,29.1,29.49,SSW,212,8.0,22.0,56,0.00,,,0.00,Wunderground v.1.15,2013-01-20 19:27:00,
2013-01-20 14:32:00,43.6,29.4,29.49,SW,227,8.0,22.0,57,0.00,,,0.00,Wunderground v.1.15,2013-01-20 19:32:00,
2013-01-20 14:38:00,43.3,29.5,29.50,WSW,243,8.0,22.0,58,0.00,,,0.00,Wunderground v.1.15,2013-01-20 19:38:00,
2013-01-20 14:44:00,43.2,29.4,29.50,South,187,9.0,22.0,58,0.00,,,0.00,Wunderground v.1.15,2013-01-20 19:44:00,
2013-01-20 14:50:00,43.1,29.3,29.51,WSW,238,8.0,8.0,58,0.00,,,0.00,Wunderground v.1.15,2013-01-20 19:50:00,
2013-01-20 14:55:00,42.9,29.5,29.51,South,171,7.0,22.0,59,0.00,,,0.00,Wunderground v.1.15,2013-01-20 19:55:00,
2013-01-20 15:00:00,42.8,29.0,29.51,WSW,245,7.0,7.0,58,0.00,,,0.00,Wunderground v.1.15,2013-01-20 20:00:00,
2013-01-20 15:05:00,42.8,29.5,29.51,SW,227,6.0,22.0,59,0.00,,,0.00,Wunderground v.1.15,2013-01-20 20:05:00,
2013-01-20 15:11:00,42.8,28.6,29.50,SW,221,6.0,22.0,57,0.00,,,0.00,Wunderground v.1.15,2013-01-20 20:11:00,
2013-01-20 15:16:00,43.2,27.2,29.51,West,271,8.0,22.0,53,0.00,,,0.00,Wunderground v.1.15,2013-01-20 20:16:00,
2013-01-20 15:21:00,43.6,28.0,29.51,SW,218,8.0,8.0,54,0.00,,,0.00,Wunderground v.1.15,2013-01-20 20:21:00,
2013-01-20 15:26:00,43.9,25.5,29.52,WNW,283,7.0,22.0,48,0.00,,,0.00,Wunderground v.1.15,2013-01-20 20:26:00,
2013-01-20 15:32:00,44.2,23.6,29.52,North,350,8.0,22.0,44,0.00,,,0.00,Wunderground v.1.15,2013-01-20 20:32:00,
2013-01-20 15:37:00,44.3,23.7,29.53,SW,215,8.0,22.0,44,0.00,,,0.00,Wunderground v.1.15,2013-01-20 20:37:00,
2013-01-20 15:43:00,44.2,23.6,29.53,West,267,7.0,22.0,44,0.00,,,0.00,Wunderground v.1.15,2013-01-20 20:43:00,
2013-01-20 15:48:00,44.2,23.6,29.53,West,269,6.0,22.0,44,0.00,,,0.00,Wunderground v.1.15,2013-01-20 20:48:00,
2013-01-20 15:53:00,44.0,24.0,29.54,South,188,6.0,22.0,45,0.00,,,0.00,Wunderground v.1.15,2013-01-20 20:53:00,
2013-01-20 15:58:00,43.7,22.6,29.54,SW,227,7.0,22.0,43,0.00,,,0.00,Wunderground v.1.15,2013-01-20 20:58:00,
2013-01-20 16:04:00,43.2,22.2,29.55,SSW,207,7.0,22.0,43,0.00,,,0.00,Wunderground v.1.15,2013-01-20 21:04:00,
2013-01-20 16:10:00,42.8,21.8,29.55,SW,219,7.0,7.0,43,0.00,,,0.00,Wunderground v.1.15,2013-01-20 21:10:00,
2013-01-20 16:16:00,42.4,20.3,29.55,SSW,202,7.0,22.0,41,0.00,,,0.00,Wunderground v.1.15,2013-01-20 21:16:00,
2013-01-20 16:22:00,42.0,18.8,29.56,WSW,244,7.0,13.0,39,0.00,,,0.00,Wunderground v.1.15,2013-01-20 21:22:00,
2013-01-20 16:27:00,41.8,18.6,29.57,SW,218,9.0,22.0,39,0.00,,,0.00,Wunderground v.1.15,2013-01-20 21:27:00,
2013-01-20 16:32:00,41.6,18.4,29.57,West,272,8.0,22.0,39,0.00,,,0.00,Wunderground v.1.15,2013-01-20 21:32:00,
2013-01-20 16:37:00,41.4,18.3,29.57,WNW,285,8.0,22.0,39,0.00,,,0.00,Wunderground v.1.15,2013-01-20 21:37:00,
2013-01-20 16:43:00,41.0,18.5,29.58,WSW,254,7.0,22.0,40,0.00,,,0.00,Wunderground v.1.15,2013-01-20 21:43:00,
2013-01-20 16:49:00,40.7,18.2,29.58,SW,223,8.0,22.0,40,0.00,,,0.00,Wunderground v.1.15,2013-01-20 21:49:00,
2013-01-20 16:54:00,40.5,18.6,29.59,West,267,9.0,22.0,41,0.00,,,0.00,Wunderground v.1.15,2013-01-20 21:54:00,
2013-01-20 17:00:00,40.1,18.3,29.59,WSW,244,8.0,22.0,41,0.00,,,0.00,Wunderground v.1.15,2013-01-20 22:00:00,
2013-01-20 17:06:00,39.8,18.0,29.60,WNW,298,9.0,22.0,41,0.00,,,0.00,Wunderground v.1.15,2013-01-20 22:06:00,
2013-01-20 17:11:00,39.6,17.8,29.60,SW,215,9.0,22.0,41,0.00,,,0.00,Wunderground v.1.15,2013-01-20 22:11:00,
2013-01-20 17:17:00,39.4,17.6,29.61,SW,224,8.0,22.0,41,0.00,,,0.00,Wunderground v.1.15,2013-01-20 22:17:00,
2013-01-20 17:22:00,39.3,17.5,29.61,South,182,9.0,22.0,41,0.00,,,0.00,Wunderground v.1.15,2013-01-20 22:22:00,
2013-01-20 17:27:00,39.0,17.8,29.62,SW,217,7.0,22.0,42,0.00,,,0.00,Wunderground v.1.15,2013-01-20 22:27:00,
2013-01-20 17:33:00,38.8,18.2,29.62,SW,224,6.0,22.0,43,0.00,,,0.00,Wunderground v.1.15,2013-01-20 22:33:00,
2013-01-20 17:38:00,38.6,18.0,29.62,West,262,7.0,22.0,43,0.00,,,0.00,Wunderground v.1.15,2013-01-20 22:38:00,
2013-01-20 17:43:00,38.4,17.8,29.63,West,270,7.0,22.0,43,0.00,,,0.00,Wunderground v.1.15,2013-01-20 22:43:00,
2013-01-20 17:48:00,38.2,18.2,29.63,SW,217,7.0,22.0,44,0.00,,,0.00,Wunderground v.1.15,2013-01-20 22:48:00,
2013-01-20 17:53:00,38.0,18.0,29.64,WSW,246,7.0,22.0,44,0.00,,,0.00,Wunderground v.1.15,2013-01-20 22:53:00,
2013-01-20 17:58:00,37.9,17.9,29.64,WSW,242,7.0,22.0,44,0.00,,,0.00,Wunderground v.1.15,2013-01-20 22:58:00,
2013-01-20 18:03:00,37.6,17.6,29.65,South,184,7.0,22.0,44,0.00,,,0.00,Wunderground v.1.15,2013-01-20 23:03:00,
2013-01-20 18:08:00,37.5,17.5,29.65,SW,227,7.0,22.0,44,0.00,,,0.00,Wunderground v.1.15,2013-01-20 23:08:00,
2013-01-20 18:14:00,37.2,17.8,29.66,WSW,255,8.0,22.0,45,0.00,,,0.00,Wunderground v.1.15,2013-01-20 23:14:00,
2013-01-20 18:19:00,36.8,17.4,29.66,South,182,7.0,22.0,45,0.00,,,0.00,Wunderground v.1.15,2013-01-20 23:19:00,
2013-01-20 18:24:00,36.5,17.7,29.66,SSW,204,7.0,22.0,46,0.00,,,0.00,Wunderground v.1.15,2013-01-20 23:24:00,
2013-01-20 18:30:00,36.2,17.4,29.67,WSW,254,8.0,8.0,46,0.00,,,0.00,Wunderground v.1.15,2013-01-20 23:30:00,
2013-01-20 18:35:00,35.9,17.6,29.67,SSE,154,7.0,22.0,47,0.00,,,0.00,Wunderground v.1.15,2013-01-20 23:35:00,
2013-01-20 18:40:00,35.6,18.3,29.68,SSW,192,7.0,7.0,49,0.00,,,0.00,Wunderground v.1.15,2013-01-20 23:40:00,
2013-01-20 18:46:00,35.2,17.4,29.68,SW,221,6.0,22.0,48,0.00,,,0.00,Wunderground v.1.15,2013-01-20 23:46:00,
2013-01-20 18:51:00,35.0,17.3,29.68,West,274,6.0,15.0,48,0.00,,,0.00,Wunderground v.1.15,2013-01-20 23:51:00,
2013-01-20 18:56:00,34.8,17.1,29.68,WNW,283,6.0,22.0,48,0.00,,,0.00,Wunderground v.1.15,2013-01-20 23:56:00,
2013-01-20 19:02:00,34.6,16.4,29.69,WSW,250,6.0,22.0,47,0.00,,,0.00,Wunderground v.1.15,2013-01-21 00:02:00,
2013-01-20 19:08:00,34.4,16.2,29.69,West,260,6.0,22.0,47,0.00,,,0.00,Wunderground v.1.15,2013-01-21 00:08:00,
2013-01-20 19:14:00,34.1,15.9,29.69,West,264,5.0,22.0,47,0.00,,,0.00,Wunderground v.1.15,2013-01-21 00:14:00,
2013-01-20 19:19:00,33.9,15.8,29.69,South,179,5.0,22.0,47,0.00,,,0.00,Wunderground v.1.15,2013-01-21 00:19:00,
2013-01-20 19:24:00,33.7,15.6,29.69,SSW,211,5.0,22.0,47,0.00,,,0.00,Wunderground v.1.15,2013-01-21 00:24:00,
2013-01-20 19:30:00,33.5,15.4,29.70,West,266,6.0,22.0,47,0.00,,,0.00,Wunderground v.1.15,2013-01-21 00:30:00,
2013-01-20 19:35:00,33.4,15.3,29.70,SSW,211,6.0,22.0,47,0.00,,,0.00,Wunderground v.1.15,2013-01-21 00:35:00,
2013-01-20 19:41:00,33.1,15.0,29.70,WSW,255,6.0,6.0,47,0.00,,,0.00,Wunderground v.1.15,2013-01-21 00:41:00,
2013-01-20 19:46:00,32.9,15.3,29.71,SW,230,5.0,22.0,48,0.00,,,0.00,Wunderground v.1.15,2013-01-21 00:46:00,
2013-01-20 19:51:00,32.7,15.1,29.71,West,259,4.0,22.0,48,0.00,,,0.00,Wunderground v.1.15,2013-01-21 00:51:00,
2013-01-20 19:56:00,32.6,15.1,29.71,West,278,5.0,22.0,48,0.00,,,0.00,Wunderground v.1.15,2013-01-21 00:56:00,
2013-01-20 20:01:00,32.5,15.0,29.71,NW,304,6.0,22.0,48,0.00,,,0.00,Wunderground v.1.15,2013-01-21 01:01:00,
2013-01-20 20:07:00,32.4,15.3,29.72,WNW,301,6.0,22.0,49,0.00,,,0.00,Wunderground v.1.15,2013-01-21 01:07:00,
2013-01-20 20:12:00,32.4,15.3,29.72,WSW,252,7.0,22.0,49,0.00,,,0.00,Wunderground v.1.15,2013-01-21 01:12:00,
2013-01-20 20:17:00,32.2,15.2,29.72,WSW,258,6.0,22.0,49,0.00,,,0.00,Wunderground v.1.15,2013-01-21 01:17:00,
2013-01-20 20:22:00,32.0,15.4,29.72,West,275,4.0,22.0,50,0.00,,,0.00,Wunderground v.1.15,2013-01-21 01:22:00,
2013-01-20 20:28:00,31.8,15.3,29.73,West,273,4.0,22.0,50,0.00,,,0.00,Wunderground v.1.15,2013-01-21 01:28:00,
2013-01-20 20:34:00,31.7,15.2,29.73,WSW,238,5.0,22.0,50,0.00,,,0.00,Wunderground v.1.15,2013-01-21 01:34:00,
2013-01-20 20:39:00,31.5,15.4,29.74,WSW,254,4.0,22.0,51,0.00,,,0.00,Wunderground v.1.15,2013-01-21 01:39:00,
2013-01-20 20:45:00,31.3,15.7,29.74,WNW,282,3.0,22.0,52,0.00,,,0.00,Wunderground v.1.15,2013-01-21 01:45:00,
2013-01-20 20:50:00,31.2,15.6,29.74,West,261,2.0,22.0,52,0.00,,,0.00,Wunderground v.1.15,2013-01-21 01:50:00,
2013-01-20 20:56:00,31.0,15.4,29.75,NW,310,2.0,22.0,52,0.00,,,0.00,Wunderground v.1.15,2013-01-21 01:56:00,
2013-01-20 21:01:00,30.8,15.2,29.75,SW,221,1.0,22.0,52,0.00,,,0.00,Wunderground v.1.15,2013-01-21 02:01:00,
2013-01-20 21:06:00,30.6,15.5,29.75,NW,305,2.0,22.0,53,0.00,,,0.00,Wunderground v.1.15,2013-01-21 02:06:00,
2013-01-20 21:11:00,30.6,15.5,29.76,WSW,238,2.0,22.0,53,0.00,,,0.00,Wunderground v.1.15,2013-01-21 02:11:00,
2013-01-20 21:17:00,30.5,16.2,29.76,West,281,3.0,22.0,55,0.00,,,0.00,Wunderground v.1.15,2013-01-21 02:17:00,
2013-01-20 21:23:00,30.4,16.1,29.76,SSW,203,3.0,22.0,55,0.00,,,0.00,Wunderground v.1.15,2013-01-21 02:23:00,
2013-01-20 21:28:00,30.4,16.6,29.77,WNW,292,3.0,22.0,56,0.00,,,0.00,Wunderground v.1.15,2013-01-21 02:28:00,
2013-01-20 21:33:00,30.3,16.9,29.76,SE,146,2.0,22.0,57,0.00,,,0.00,Wunderground v.1.15,2013-01-21 02:33:00,
2013-01-20 21:39:00,30.3,16.9,29.77,West,265,3.0,22.0,57,0.00,,,0.00,Wunderground v.1.15,2013-01-21 02:39:00,
2013-01-20 21:45:00,30.4,17.0,29.77,NW,315,4.0,22.0,57,0.00,,,0.00,Wunderground v.1.15,2013-01-21 02:45:00,
2013-01-20 21:51:00,30.3,16.9,29.78,West,265,4.0,22.0,57,0.00,,,0.00,Wunderground v.1.15,2013-01-21 02:51:00,
2013-01-20 21:57:00,30.2,16.8,29.78,WSW,248,3.0,22.0,57,0.00,,,0.00,Wunderground v.1.15,2013-01-21 02:57:00,
2013-01-20 22:03:00,30.1,15.9,29.78,NW,323,4.0,22.0,55,0.00,,,0.00,Wunderground v.1.15,2013-01-21 03:03:00,
2013-01-20 22:09:00,30.0,14.9,29.78,NW,310,3.0,22.0,53,0.00,,,0.00,Wunderground v.1.15,2013-01-21 03:09:00,
2013-01-20 22:14:00,29.8,12.5,29.78,West,267,4.0,22.0,48,0.00,,,0.00,Wunderground v.1.15,2013-01-21 03:14:00,